Find Local Weather

World > North America > United States > Massachusetts

Charlton, Massachusetts Regional Weather

Lat: 42.13N, Lon: 71.97W
Wx Zone: MAZ012
Warning FLW WEATHER ALERT - WINTER WEATHER ADVISORY (More Info. Click Here) Warning
Feedback

Charlton, MA Regional Weather

Expires:201902231300;;383293
ASUS41 KGYX 231210
RWRGYX
WEATHER ROUNDUP FOR MAINE AND NEW HAMPSHIRE
NATIONAL WEATHER SERVICE GRAY ME
700 AM EST SAT FEB 23 2019


MAZ007-012-024-CTZ003-RIZ002-NYZ038-NYZ072-231300-
SOUTHERN NEW ENGLAND AND NY
  
CITY           SKY/WX    TMP DP  RH WIND       PRES   REMARKS
BOSTON         MOCLDY    31  17  56 NW10      30.51R                  
WORCESTER      FAIR      22  15  75 NW3       30.44S                  
NANTUCKET      FAIR      31  27  85 N6        30.46S                  
PROVIDENCE     MOCLDY    29  19  66 N6        30.50R                  
HARTFORD       MOCLDY    23  17  78 CALM      30.50F                  
ALBANY         MOCLDY    20  14  77 SE5       30.51F                  
NEW YORK CITY  MOCLDY    32  20  61 NE7       30.49F                  
$$


SKY/WX - Weather  TMP - Temperature  DP - Dew Point  RH - Relative Humidity
WIND - Wind Direction/Speed PRES - Barometric Pressure VSB - Visibility
WCI - Wind Chill Index E13G22 Wind - East Wind 13 mph/Gusts of 22 mph